Marfa, TX

7:34 AM CST on February 13, 2016 (GMT -0600)
Marfa Municipal

Weather History for KMRF - January, 2013

Change the Weather History Date:

Wednesday, January 30, 2013

  Actual Average Record
Temperature  
Mean Temperature 34 °F -  
Max Temperature 46 °F 57 °F 71 °F (2014)
Min Temperature 21 °F 27 °F 10 °F (2009)
Degree Days  
Heating Degree Days 32    
Moisture  
Dew Point 11 °F    
Average Humidity 39    
Maximum Humidity 69    
Minimum Humidity 20    
Precipitation  
Precipitation 0.00 in - - ()
Sea Level Pressure  
Sea Level Pressure 30.17 in    
Wind  
Wind Speed 14 mph (West)    
Max Wind Speed 25 mph    
Max Gust Speed 28 mph    
Visibility 10 miles    
Events      
Averages and records for this station are not official NWS values.
T = Trace of Precipitation, MM = Missing Value Source: NWS Daily Summary

Daily Weather History Graph

Daily Weather History Graph

Search for Another Location

Airport or City:

Trip Planner

Search our weather history database for the weather conditions in past years. The results will help you decide how hot, cold, wet, or windy it might be!

Date:

Astronomy

Jan. 30, 2013 Rise Set
Actual Time 7:47 AM CST 6:31 PM CST
Civil Twilight 7:22 AM CST 6:56 PM CST
Nautical Twilight 6:53 AM CST 7:25 PM CST
Astronomical Twilight 6:25 AM CST 7:53 PM CST
Moon 10:10 PM CST (1/30) 9:36 AM CST (1/30)
Length of Visible Light 11h 33m
Length of Day
10h 43m
Waning Gibbous, 87% of the Moon is Illuminated
Jan 30
Waning Gibbous
Feb 3
Last Quarter
Feb 10
New
Feb 17
First Quarter
Feb 25
Full

Hourly Weather History & Observations

Time (CST) Temp. Windchill Dew Point Humidity Pressure Visibility Wind Dir Wind Speed Gust Speed Precip Events Conditions
12:35 AM 33.8 °F 22.8 °F 12.2 °F 41% 30.03 in 10.0 mi West 18.4 mph 25.3 mph N/A   Clear
12:55 AM 33.8 °F 22.5 °F 12.2 °F 41% 30.03 in 10.0 mi West 19.6 mph 25.3 mph N/A   Clear
1:15 AM 33.8 °F 22.5 °F 10.4 °F 38% 30.03 in 10.0 mi West 19.6 mph - N/A   Clear
1:35 AM 33.8 °F 23.5 °F 10.4 °F 38% 30.04 in 10.0 mi WNW 16.1 mph 21.9 mph N/A   Clear
1:55 AM 32.0 °F 21.2 °F 10.4 °F 41% 30.04 in 10.0 mi WNW 16.1 mph - N/A   Clear
2:15 AM 30.2 °F 21.3 °F 10.4 °F 44% 30.06 in 10.0 mi WNW 10.4 mph - N/A   Clear
2:35 AM 30.2 °F 21.9 °F 10.4 °F 44% 30.07 in 10.0 mi WNW 9.2 mph - N/A   Clear
2:55 AM 30.2 °F 22.6 °F 10.4 °F 44% 30.09 in 10.0 mi WNW 8.1 mph - N/A   Clear
3:15 AM 28.4 °F 19.7 °F 10.4 °F 47% 30.09 in 10.0 mi NW 9.2 mph - N/A   Clear
3:35 AM 28.4 °F 18.5 °F 10.4 °F 47% 30.09 in 10.0 mi West 11.5 mph - N/A   Clear
3:55 AM 26.6 °F 16.2 °F 10.4 °F 51% 30.09 in 10.0 mi West 11.5 mph - N/A   Clear
4:15 AM 26.6 °F 17.5 °F 12.2 °F 55% 30.09 in 10.0 mi West 9.2 mph - N/A   Clear
4:35 AM 24.8 °F 16.1 °F 10.4 °F 54% 30.10 in 10.0 mi WNW 8.1 mph - N/A   Clear
4:55 AM 26.6 °F 17.5 °F 12.2 °F 55% 30.09 in 10.0 mi West 9.2 mph - N/A   Clear
5:15 AM 24.8 °F 15.3 °F 12.2 °F 59% 30.10 in 10.0 mi West 9.2 mph - N/A   Clear
5:35 AM 24.8 °F 15.3 °F 12.2 °F 59% 30.11 in 10.0 mi West 9.2 mph - N/A   Clear
5:55 AM 24.8 °F 16.9 °F 12.2 °F 59% 30.12 in 10.0 mi West 6.9 mph - N/A   Clear
6:15 AM 23.0 °F 13.1 °F 12.2 °F 63% 30.13 in 10.0 mi West 9.2 mph - N/A   Clear
6:35 AM 24.8 °F 15.3 °F 14.0 °F 64% 30.14 in 10.0 mi WSW 9.2 mph - N/A   Clear
6:55 AM 21.2 °F 10.1 °F 12.2 °F 68% 30.15 in 10.0 mi West 10.4 mph - N/A   Clear
7:15 AM 24.8 °F 14.0 °F 15.8 °F 69% 30.15 in 10.0 mi West 11.5 mph - N/A   Clear
7:35 AM 24.8 °F 14.6 °F 14.0 °F 64% 30.15 in 10.0 mi West 10.4 mph - N/A   Clear
7:55 AM 21.2 °F 8.9 °F 12.2 °F 68% 30.16 in 10.0 mi West 12.7 mph - N/A   Clear
8:15 AM 24.8 °F 14.6 °F 15.8 °F 69% 30.16 in 10.0 mi West 10.4 mph - N/A   Clear
8:35 AM 26.6 °F 21.2 °F 15.8 °F 64% 30.18 in 10.0 mi ENE 4.6 mph - N/A   Clear
8:55 AM 28.4 °F 24.6 °F 17.6 °F 64% 30.19 in 10.0 mi SW 3.5 mph - N/A   Clear
9:15 AM 33.8 °F 23.9 °F 17.6 °F 52% 30.20 in 10.0 mi West 15.0 mph - N/A   Clear
9:35 AM 33.8 °F 24.3 °F 17.6 °F 52% 30.22 in 10.0 mi WNW 13.8 mph - N/A   Clear
9:55 AM 35.6 °F 26.6 °F 17.6 °F 48% 30.22 in 10.0 mi WNW 13.8 mph - N/A   Clear
10:15 AM 35.6 °F 26.2 °F 17.6 °F 48% 30.22 in 10.0 mi WNW 15.0 mph 23.0 mph N/A   Clear
10:35 AM 37.4 °F 28.9 °F 17.6 °F 45% 30.22 in 10.0 mi WNW 13.8 mph - N/A   Clear
10:55 AM 37.4 °F 27.8 °F 17.6 °F 45% 30.22 in 10.0 mi WNW 17.3 mph 23.0 mph N/A   Clear
11:15 AM 39.2 °F 29.8 °F 15.8 °F 39% 30.22 in 10.0 mi WNW 18.4 mph 24.2 mph N/A   Clear
11:35 AM 39.2 °F 29.8 °F 15.8 °F 39% 30.24 in 10.0 mi West 18.4 mph 23.0 mph N/A   Clear
11:55 AM 41.0 °F 33.1 °F 15.8 °F 36% 30.23 in 10.0 mi WNW 15.0 mph 25.3 mph N/A   Clear
12:15 PM 42.8 °F 34.5 °F 15.8 °F 34% 30.23 in 10.0 mi West 18.4 mph 26.5 mph N/A   Clear
12:35 PM 42.8 °F 34.0 °F 12.2 °F 29% 30.22 in 10.0 mi West 20.7 mph 27.6 mph N/A   Clear
12:55 PM 42.8 °F 33.3 °F 10.4 °F 27% 30.22 in 10.0 mi West 24.2 mph 27.6 mph N/A   Clear
1:15 PM 44.6 °F 36.1 °F 10.4 °F 25% 30.21 in 10.0 mi West 21.9 mph 26.5 mph N/A   Clear
1:35 PM 44.6 °F 37.2 °F 14.0 °F 29% 30.20 in 10.0 mi West 17.3 mph 23.0 mph N/A   Clear
1:55 PM 44.6 °F 36.1 °F 12.2 °F 27% 30.19 in 10.0 mi West 21.9 mph 26.5 mph N/A   Clear
2:15 PM 44.6 °F 35.9 °F 10.4 °F 25% 30.19 in 10.0 mi West 23.0 mph 26.5 mph N/A   Clear
2:35 PM 44.6 °F 35.7 °F 8.6 °F 23% 30.18 in 10.0 mi WSW 24.2 mph 27.6 mph N/A   Clear
2:55 PM 44.6 °F 35.9 °F 6.8 °F 21% 30.18 in 10.0 mi West 23.0 mph 27.6 mph N/A   Clear
3:15 PM 44.6 °F 35.5 °F 6.8 °F 21% 30.18 in 10.0 mi West 25.3 mph - N/A   Clear
3:35 PM 46.4 °F 38.1 °F 6.8 °F 20% 30.17 in 10.0 mi West 24.2 mph 27.6 mph N/A   Clear
3:55 PM 44.6 °F 35.9 °F 8.6 °F 23% 30.17 in 10.0 mi West 23.0 mph - N/A   Clear
4:15 PM 44.6 °F 36.4 °F 8.6 °F 23% 30.17 in 10.0 mi West 20.7 mph 27.6 mph N/A   Clear
4:35 PM 44.6 °F 35.9 °F 8.6 °F 23% 30.17 in 10.0 mi West 23.0 mph - N/A   Clear
4:55 PM 44.6 °F 37.2 °F 10.4 °F 25% 30.17 in 10.0 mi West 17.3 mph 21.9 mph N/A   Clear
5:15 PM 44.6 °F 37.4 °F 10.4 °F 25% 30.17 in 10.0 mi West 16.1 mph 24.2 mph N/A   Clear
5:35 PM 44.6 °F 37.2 °F 10.4 °F 25% 30.18 in 10.0 mi West 17.3 mph - N/A   Clear
5:55 PM 44.6 °F 37.2 °F 8.6 °F 23% 30.17 in 10.0 mi West 17.3 mph 20.7 mph N/A   Clear
6:15 PM 42.8 °F 35.4 °F 8.6 °F 25% 30.17 in 10.0 mi West 15.0 mph - N/A   Clear
6:35 PM 41.0 °F 35.8 °F 6.8 °F 24% 30.17 in 10.0 mi West 8.1 mph - N/A   Clear
6:55 PM 37.4 °F 31.4 °F 5.0 °F 26% 30.18 in 10.0 mi West 8.1 mph - N/A   Clear
7:15 PM 37.4 °F 30.3 °F 5.0 °F 26% 30.18 in 10.0 mi West 10.4 mph - N/A   Clear
7:35 PM 35.6 °F 28.6 °F 5.0 °F 28% 30.18 in 10.0 mi WNW 9.2 mph - N/A   Clear
7:55 PM 37.4 °F 31.4 °F 6.8 °F 28% 30.19 in 10.0 mi WNW 8.1 mph - N/A   Clear
8:15 PM 35.6 °F 28.6 °F 5.0 °F 28% 30.20 in 10.0 mi WNW 9.2 mph - N/A   Clear
8:35 PM 35.6 °F 28.0 °F 5.0 °F 28% 30.20 in 10.0 mi WNW 10.4 mph - N/A   Clear
8:55 PM 35.6 °F 28.6 °F 5.0 °F 28% 30.20 in 10.0 mi WNW 9.2 mph - N/A   Clear
9:15 PM 35.6 °F 29.2 °F 5.0 °F 28% 30.20 in 10.0 mi WNW 8.1 mph - N/A   Clear
9:35 PM 37.4 °F 32.8 °F 6.8 °F 28% 30.21 in 10.0 mi WNW 5.8 mph - N/A   Clear
9:55 PM 33.8 °F - 5.0 °F 30% 30.22 in 10.0 mi Calm Calm - N/A   Clear
10:15 PM 32.0 °F - 5.0 °F 32% 30.22 in 10.0 mi Calm Calm - N/A   Clear
10:35 PM 33.8 °F - 5.0 °F 30% 30.22 in 10.0 mi Calm Calm - N/A   Clear
10:55 PM 35.6 °F 30.7 °F 6.8 °F 30% 30.23 in 10.0 mi WNW 5.8 mph - N/A   Clear
11:15 PM 35.6 °F 29.2 °F 5.0 °F 28% 30.24 in 10.0 mi West 8.1 mph - N/A   Clear
11:35 PM 33.8 °F 27.0 °F 5.0 °F 30% 30.24 in 10.0 mi West 8.1 mph - N/A   Clear
11:55 PM 28.4 °F 21.2 °F 3.2 °F 34% 30.25 in 10.0 mi South 6.9 mph - N/A   Clear